Change the Weather History Date:

Tuesday, June 25, 2013

  Actual Average Record
Temperature  
Mean Temperature 90 °F -  
Max Temperature 93 °F 88 °F 102 °F (2012)
Min Temperature 84 °F 76 °F 60 °F (1974)
Cooling Degree Days 24    
Growing Degree Days 40 (Base 50)    
Moisture  
Dew Point 75 °F    
Average Humidity 65    
Maximum Humidity 74    
Minimum Humidity 54    
Precipitation  
Precipitation 0.00 in - - ()
Sea Level Pressure  
Sea Level Pressure 30.00 in    
Wind  
Wind Speed 14 mph (SSE)    
Max Wind Speed 17 mph    
Max Gust Speed 28 mph    
Visibility 10 miles    
Events      
Averages and records for this station are not official NWS values.
T = Trace of Precipitation, MM = Missing Value Source: NWS Daily Summary

Daily Weather History Graph

Daily Weather History Graph

Search for Another Location

Airport or City:

Trip Planner

Search our weather history database for the weather conditions in past years. The results will help you decide how hot, cold, wet, or windy it might be!

Date:

Astronomy

Jun. 25, 2013 Rise Set
Actual Time 6:28 AM CDT 8:26 PM CDT
Civil Twilight 6:01 AM CDT 8:53 PM CDT
Nautical Twilight 5:28 AM CDT 9:26 PM CDT
Astronomical Twilight 4:54 AM CDT 10:01 PM CDT
Moon 10:29 PM CDT (6/25) 8:57 AM CDT (6/25)
Length of Visible Light 14h 52m
Length of Day
13h 58m
Waning Gibbous, 92% of the Moon is Illuminated
Jun 25
Waning Gibbous
Jun 29
Last Quarter
Jul 8
New
Jul 15
First Quarter
Jul 22
Full

Hourly Weather History & Observations

Time (CDT) Temp. Heat Index Dew Point Humidity Pressure Visibility Wind Dir Wind Speed Gust Speed Precip Events Conditions
12:53 AM 86.0 °F 95.1 °F 75.0 °F 70% 30.02 in 10.0 mi SSE 13.8 mph - N/A   Clear
1:53 AM 86.0 °F 96.0 °F 75.9 °F 72% 30.01 in 10.0 mi SSE 13.8 mph - N/A   Mostly Cloudy
2:12 AM 86.0 °F 95.1 °F 75.2 °F 70% 30.01 in 10.0 mi SSE 15.0 mph - N/A   Mostly Cloudy
2:40 AM 86.0 °F 96.9 °F 77.0 °F 74% 30.01 in 10.0 mi SSE 12.7 mph 23.0 mph N/A   Overcast
2:53 AM 86.0 °F 96.9 °F 77.0 °F 74% 30.01 in 10.0 mi SSE 13.8 mph 20.7 mph N/A   Overcast
3:53 AM 86.0 °F 96.0 °F 75.9 °F 72% 30.01 in 10.0 mi South 16.1 mph 21.9 mph N/A   Overcast
4:20 AM 86.0 °F 95.1 °F 75.2 °F 70% 30.00 in 10.0 mi South 12.7 mph 21.9 mph N/A   Overcast
4:37 AM 86.0 °F 95.1 °F 75.2 °F 70% 30.00 in 10.0 mi SSE 15.0 mph - N/A   Overcast
5:19 AM 86.0 °F 96.9 °F 77.0 °F 74% 30.00 in 10.0 mi SSE 12.7 mph 19.6 mph N/A   Overcast
6:32 AM 86.0 °F 95.1 °F 75.2 °F 70% 30.01 in 10.0 mi South 13.8 mph - N/A   Mostly Cloudy
6:53 AM 86.0 °F 95.1 °F 75.0 °F 70% 30.01 in 9.0 mi South 13.8 mph 20.7 mph N/A   Mostly Cloudy
7:06 AM 86.0 °F 95.1 °F 75.2 °F 70% 30.01 in 9.0 mi South 11.5 mph - N/A   Mostly Cloudy
7:53 AM 87.1 °F 97.3 °F 75.9 °F 69% 30.02 in 9.0 mi South 12.7 mph - N/A   Mostly Cloudy
8:15 AM 87.8 °F 97.6 °F 75.2 °F 66% 30.02 in 10.0 mi South 11.5 mph 21.9 mph N/A   Scattered Clouds
8:53 AM 88.0 °F 97.5 °F 75.0 °F 65% 30.02 in 10.0 mi South 13.8 mph 19.6 mph N/A   Mostly Cloudy
9:01 AM 87.8 °F 97.6 °F 75.2 °F 66% 30.03 in 9.0 mi South 15.0 mph - N/A   Mostly Cloudy
9:53 AM 89.1 °F 100.2 °F 75.9 °F 65% 30.03 in 10.0 mi South 16.1 mph - N/A   Mostly Cloudy
10:02 AM 89.6 °F 99.8 °F 75.2 °F 62% 30.03 in 9.0 mi South 17.3 mph - N/A   Scattered Clouds
10:12 AM 89.6 °F 99.8 °F 75.2 °F 62% 30.03 in 10.0 mi South 16.1 mph - N/A   Mostly Cloudy
10:43 AM 89.6 °F 99.8 °F 75.2 °F 62% 30.03 in 10.0 mi SSW 12.7 mph - N/A   Scattered Clouds
10:53 AM 90.0 °F 100.2 °F 75.0 °F 61% 30.04 in 10.0 mi SSW 13.8 mph - N/A   Partly Cloudy
11:53 AM 91.0 °F 101.6 °F 75.0 °F 59% 30.03 in 10.0 mi South 16.1 mph 21.9 mph N/A   Partly Cloudy
12:53 PM 91.0 °F 100.4 °F 73.9 °F 57% 30.02 in 10.0 mi South 13.8 mph - N/A   Clear
1:53 PM 93.0 °F 104.6 °F 75.0 °F 56% 30.01 in 10.0 mi SSE 16.1 mph 21.9 mph N/A   Clear
2:53 PM 93.0 °F 104.6 °F 75.0 °F 56% 30.00 in 10.0 mi South 15.0 mph 23.0 mph N/A   Clear
3:53 PM 93.0 °F 103.2 °F 73.9 °F 54% 29.99 in 10.0 mi SSE 17.3 mph 25.3 mph N/A   Clear
4:53 PM 93.0 °F 103.2 °F 73.9 °F 54% 29.98 in 10.0 mi SSE 16.1 mph 23.0 mph N/A   Scattered Clouds
5:53 PM 91.0 °F 99.3 °F 73.0 °F 55% 29.96 in 10.0 mi SSE 17.3 mph - N/A   Scattered Clouds
6:50 PM 89.6 °F 98.2 °F 73.4 °F 59% 29.95 in 10.0 mi SSE 16.1 mph - N/A   Mostly Cloudy
6:53 PM 90.0 °F 99.0 °F 73.9 °F 59% 29.95 in 10.0 mi South 15.0 mph 21.9 mph N/A   Mostly Cloudy
7:12 PM 89.6 °F 98.2 °F 73.4 °F 59% 29.95 in 10.0 mi SSE 15.0 mph - N/A   Scattered Clouds
7:53 PM 88.0 °F 96.5 °F 73.9 °F 63% 29.94 in 10.0 mi SSE 16.1 mph 21.9 mph N/A   Scattered Clouds
8:53 PM 86.0 °F 93.8 °F 73.9 °F 67% 29.94 in 10.0 mi SSE 10.4 mph 27.6 mph N/A   Partly Cloudy
9:53 PM 86.0 °F 95.1 °F 75.0 °F 70% 29.95 in 10.0 mi SSE 13.8 mph - N/A   Partly Cloudy
10:50 PM 86.0 °F 95.1 °F 75.2 °F 70% 29.95 in 10.0 mi SSE 16.1 mph - N/A   Mostly Cloudy
10:53 PM 86.0 °F 95.1 °F 75.0 °F 70% 29.95 in 10.0 mi SSE 16.1 mph - N/A   Mostly Cloudy
11:32 PM 86.0 °F 93.4 °F 73.4 °F 66% 29.96 in 10.0 mi SSE 15.0 mph 23.0 mph N/A   Partly Cloudy
11:53 PM 84.9 °F 93.3 °F 75.0 °F 72% 29.96 in 10.0 mi SSE 15.0 mph - N/A   Partly Cloudy